User: anonymous   Login
Location: Pine Mountain Observatory
(43.7910°N, 120.9377°W)
Time: 18:03:24
(UTC-07:00)
Language:

Cosmos 1076 Rocket - Orbit

View from above orbital plane
View from above orbital plane
View from above satellite
View from above satellite

Ground track
Ground track

The orbit data is extracted from the following two-line orbital elements,

1 11267U 79011B   15088.10397698  .00000825  00000-0  85950-4 0  9996
2 11267 082.5225 275.0547 0018163 049.9548 310.3260 14.88491961954791
Epoch (UTC): 29 March 2015 02:29:43
Eccentricity: 0.0018163
inclination: 82.5225°
perigee height: 590 km
apogee height: 615 km
right ascension of ascending node: 275.0547°
argument of perigee: 49.9548°
revolutions per day: 14.88491961
mean anomaly at epoch: 310.3260°
orbit number at epoch: 95479

The dashed part of the orbit path shows where the satellite is in the earth's shadow,  

DLR